Weather reports worldwide

Advertisment
Tortosa, Spain (8238): temperature & dewpoint: 29.03.2020 00:00:00 - 04.04.2020 00:00:00 (CEST)Tortosa, Spain (8238): wind speed: 29.03.2020 00:00:00 - 04.04.2020 00:00:00 (CEST)Tortosa, Spain (8238): wind direction: 29.03.2020 00:00:00 - 04.04.2020 00:00:00 (CEST)Tortosa, Spain (8238): reduced air pressure: 29.03.2020 00:00:00 - 04.04.2020 00:00:00 (CEST)Tortosa, Spain (8238): visibility: 29.03.2020 00:00:00 - 04.04.2020 00:00:00 (CEST)Tortosa, Spain (8238): precipitation: 29.03.2020 00:00:00 - 04.04.2020 00:00:00 (CEST)
Date & Time tt [°C] td [°C] ff [km/h] ff [kn] dd ppp [hPa] vv [km] rr [mm]
04.04.2020 00:00:00 - - - - - - - -
03.04.2020 23:00:00 10,3 6,6 2 1 WNW 1018,3 14 -
03.04.2020 22:00:00 11,3 6,2 5 3 SE 1017,9 20 0,0
03.04.2020 21:00:00 12,3 7,6 8 4 S 1017,2 20 0,0
03.04.2020 20:00:00 14,2 7,7 5 3 SSE 1017,0 7 -
03.04.2020 19:00:00 15,5 8,2 9 5 SE 1016,7 20 0,0
03.04.2020 18:00:00 16,5 8,7 9 5 SSE 1016,2 20 0,0
03.04.2020 17:00:00 17,8 8,9 13 7 SE 1016,2 7 -
03.04.2020 16:00:00 18,4 5,2 4 2 S 1016,3 20 0,0
03.04.2020 15:00:00 20,3 7,6 11 6 NE 1016,4 20 0,0
03.04.2020 14:00:00 19,3 7,4 11 6 NNE 1016,7 7 -
03.04.2020 13:00:00 16,6 6,7 11 6 NNE 1017,2 20 0,0
03.04.2020 12:00:00 15,0 6,0 13 7 NNE 1017,4 20 0,0
03.04.2020 11:00:00 13,8 5,7 13 7 N 1017,4 7 -
03.04.2020 10:00:00 10,9 3,9 13 7 NNW 1016,9 20 0,0
03.04.2020 09:00:00 10,1 3,1 13 7 NNW 1016,3 20 0,0
03.04.2020 08:00:00 9,8 3,7 11 6 NNW 1015,7 7 -
03.04.2020 07:00:00 9,9 4,3 16 9 N 1015,0 20 0,0
03.04.2020 06:00:00 10,1 4,5 15 8 NNW 1014,8 20 0,0
03.04.2020 05:00:00 9,8 4,6 11 6 NNW 1014,6 20 -
03.04.2020 04:00:00 10,2 5,4 15 8 NW 1014,7 20 0,0
03.04.2020 03:00:00 9,8 6,9 15 8 WNW 1014,9 20 0,0
03.04.2020 02:00:00 10,8 10,5 4 2 N 1015,2 1,3 -
03.04.2020 01:00:00 10,9 10,4 2 1 SSE 1015,3 3,9 0,4
03.04.2020 00:00:00 11,1 10,5 0 0 N 1015,4 2,7 2,0
02.04.2020 23:00:00 11,4 10,0 5 3 SSW 1015,0 19 -
02.04.2020 22:00:00 11,5 10,1 8 4 SW 1014,7 13 0,0
02.04.2020 21:00:00 11,6 10,3 5 3 S 1014,0 20 0,0
02.04.2020 20:00:00 12,1 10,3 8 4 SSE 1013,3 5 -
02.04.2020 19:00:00 12,7 11,1 8 4 S 1012,8 20 0,0
02.04.2020 18:00:00 13,5 11,4 8 4 S 1012,3 14 0,0
02.04.2020 17:00:00 14,6 10,2 4 2 SE 1012,3 5 -
02.04.2020 16:00:00 14,5 11,3 5 3 N 1012,3 19 0,0
02.04.2020 15:00:00 16,5 10,8 11 6 N 1012,3 20 0,0
02.04.2020 14:00:00 16,3 11,7 11 6 N 1012,4 8 -
02.04.2020 13:00:00 13,6 10,9 11 6 N 1012,8 20 0,0
02.04.2020 12:00:00 12,6 11,0 9 5 NNE 1012,8 20 0,0
02.04.2020 11:00:00 11,6 11,0 11 6 NNE 1012,6 3,0 -
02.04.2020 10:00:00 10,8 10,5 9 5 N 1012,2 12 0,0
02.04.2020 09:00:00 10,0 10,0 11 6 N 1011,9 14 0,0
02.04.2020 08:00:00 9,9 9,9 9 5 N 1011,5 3,0 -
02.04.2020 07:00:00 9,6 9,6 4 2 N 1011,4 6 0,0
02.04.2020 06:00:00 9,6 9,6 5 3 N 1011,5 8 0,0
02.04.2020 05:00:00 9,6 9,6 5 3 NNW 1011,6 15 -
02.04.2020 04:00:00 9,7 9,7 4 2 NNW 1012,3 16 0,0
02.04.2020 03:00:00 9,7 9,7 5 3 NNE 1012,7 2,4 0,0
02.04.2020 02:00:00 9,7 9,7 4 2 WNW 1013,2 5 -
02.04.2020 01:00:00 9,7 9,7 4 2 NNW 1013,7 14 0,0
02.04.2020 00:00:00 9,7 9,7 5 3 NNW 1014,0 10 0,0
01.04.2020 23:00:00 9,7 9,6 8 4 NW 1013,6 14 -
01.04.2020 22:00:00 9,9 9,7 5 3 NNE 1013,4 13 0,4
01.04.2020 21:00:00 9,9 9,7 5 3 NNE 1012,7 1,9 4,0
01.04.2020 20:00:00 10,1 9,9 5 3 N 1012,7 7 -
01.04.2020 19:00:00 10,0 9,8 9 5 NNW 1012,4 3,6 2,0
01.04.2020 18:00:00 10,4 10,1 9 5 NNE 1012,6 1,8 5,0
01.04.2020 17:00:00 10,7 10,4 5 3 N 1012,1 4,0 -
01.04.2020 16:00:00 10,6 10,1 16 9 NNW 1011,5 2,2 4,0
01.04.2020 15:00:00 10,7 10,2 15 8 NNW 1012,0 8 2,0
01.04.2020 14:00:00 10,8 10,3 15 8 NNW 1012,4 3,0 -
01.04.2020 13:00:00 10,6 10,1 9 5 NNW 1012,8 2,2 6,0
01.04.2020 12:00:00 10,7 10,1 9 5 W 1013,7 3,6 2,0
01.04.2020 11:00:00 10,9 10,1 9 5 N 1013,4 4,0 -
01.04.2020 10:00:00 11,3 10,4 21 11 ENE 1012,9 6 0,8
01.04.2020 09:00:00 11,4 10,8 13 7 ENE 1012,8 6 0,4
01.04.2020 08:00:00 11,0 10,4 9 5 NE 1012,6 2,0 -
01.04.2020 07:00:00 11,2 10,1 9 5 W 1012,6 8 0,0
01.04.2020 06:00:00 11,1 10,2 8 4 NNE 1013,0 3,0 0,0
01.04.2020 05:00:00 11,0 9,7 4 2 NW 1013,4 7 -
01.04.2020 04:00:00 10,1 9,9 5 3 N 1013,8 - 0,0
01.04.2020 03:00:00 8,9 8,8 4 2 ENE 1014,1 1,1 0,4
01.04.2020 02:00:00 8,4 8,4 4 2 NNE 1014,7 2,1 -
01.04.2020 01:00:00 7,9 7,8 4 2 E 1015,0 2,2 0,0
01.04.2020 00:00:00 7,9 7,8 4 2 N 1015,2 1,3 0,2
31.03.2020 23:00:00 7,6 7,5 5 3 N 1015,4 2,0 -
31.03.2020 22:00:00 7,3 7,2 5 3 N 1015,0 2,3 1,0
31.03.2020 21:00:00 7,3 7,2 4 2 N 1014,6 1,3 0,8
31.03.2020 20:00:00 7,3 7,0 4 2 N 1013,8 5 -
31.03.2020 19:00:00 7,1 6,8 8 4 N 1013,5 2,8 1,0
31.03.2020 18:00:00 7,4 7,1 8 4 N 1013,3 1,2 3,0
31.03.2020 17:00:00 7,5 7,2 8 4 N 1013,0 7 -
31.03.2020 16:00:00 7,6 7,2 8 4 N 1012,7 2,5 1,0
31.03.2020 15:00:00 7,5 6,9 13 7 NNW 1012,8 3,2 0,8
31.03.2020 14:00:00 7,3 6,7 13 7 NNW 1013,0 7 -
31.03.2020 13:00:00 7,2 6,6 13 7 NNW 1013,5 2,9 1,0
31.03.2020 12:00:00 7,0 6,3 11 6 NNW 1013,7 2,9 0,2
31.03.2020 11:00:00 6,7 6,3 9 5 NNW 1013,8 10 -
31.03.2020 10:00:00 6,1 5,7 9 5 N 1013,6 2,2 0,4
31.03.2020 09:00:00 5,8 5,5 8 4 NNW 1013,5 1,4 3,0
31.03.2020 08:00:00 5,4 4,8 11 6 N 1013,2 6 -
31.03.2020 07:00:00 5,2 4,6 13 7 N 1012,9 1,4 0,8
31.03.2020 06:00:00 5,3 4,4 13 7 N 1013,0 1,7 1,0
31.03.2020 05:00:00 5,7 3,7 11 6 N 1013,7 1,9 -
31.03.2020 04:00:00 6,0 3,5 9 5 N 1014,3 18 0,0
31.03.2020 03:00:00 6,0 3,0 9 5 N 1014,7 20 0,0
31.03.2020 02:00:00 6,1 3,3 11 6 NNE 1015,0 20 -
31.03.2020 01:00:00 6,5 3,3 9 5 NNE 1015,3 20 0,0
31.03.2020 00:00:00 6,6 3,6 8 4 N 1015,7 20 0,2
30.03.2020 23:00:00 6,6 3,0 11 6 N 1015,9 20 -
30.03.2020 22:00:00 6,5 3,3 11 6 N 1016,0 19 0,2
30.03.2020 21:00:00 6,9 3,0 9 5 N 1015,9 20 0,2
30.03.2020 20:00:00 7,2 2,9 11 6 N 1015,3 15 -
30.03.2020 19:00:00 6,8 4,1 11 6 N 1015,5 20 0,4
30.03.2020 18:00:00 7,0 4,3 11 6 N 1015,6 9 0,4
30.03.2020 17:00:00 6,9 4,0 9 5 N 1015,6 15 -
30.03.2020 16:00:00 6,5 4,5 9 5 N 1016,5 10 1,0
30.03.2020 15:00:00 6,8 2,3 16 9 WNW 1017,1 9 0,0
30.03.2020 14:00:00 9,7 -1,4 13 7 NW 1016,5 15 -
30.03.2020 13:00:00 11,0 -3,5 16 9 NW 1016,2 20 0,0
30.03.2020 12:00:00 10,5 -4,0 22 12 WNW 1016,4 20 0,0
30.03.2020 11:00:00 10,1 -2,9 15 8 NNW 1016,4 15 -
30.03.2020 10:00:00 10,3 -2,7 13 7 N 1015,4 20 0,0
30.03.2020 09:00:00 10,1 -2,3 11 6 NW 1014,7 20 0,0
30.03.2020 08:00:00 10,3 -1,1 24 13 NNW 1013,8 15 -
30.03.2020 07:00:00 11,1 0,8 24 13 NW 1013,5 20 0,0
30.03.2020 06:00:00 11,2 1,7 18 10 NNW 1013,7 20 0,0
30.03.2020 05:00:00 11,6 2,6 15 8 NNW 1013,9 20 -
30.03.2020 04:00:00 12,1 3,6 18 10 NNW 1014,0 18 0,0
30.03.2020 03:00:00 12,3 3,5 18 10 NNW 1014,4 19 0,0
30.03.2020 02:00:00 12,7 3,4 16 9 NNW 1014,3 18 -
30.03.2020 01:00:00 13,0 3,4 18 10 NNW 1014,6 17 0,0
30.03.2020 00:00:00 13,4 3,2 16 9 NNW 1014,6 18 0,0
29.03.2020 23:00:00 14,3 3,4 11 6 NW 1015,1 20 -
29.03.2020 22:00:00 15,7 3,8 9 5 WNW 1014,8 16 0,0
29.03.2020 21:00:00 17,0 2,9 15 8 W 1014,0 19 0,0
29.03.2020 20:00:00 18,8 0,4 15 8 W 1013,3 15 -
29.03.2020 19:00:00 20,6 -1,3 16 9 WNW 1013,0 20 0,0
29.03.2020 18:00:00 22,2 0,7 16 9 W 1012,9 20 0,0
29.03.2020 17:00:00 22,5 0,3 18 10 WNW 1013,2 12 -
29.03.2020 16:00:00 22,5 1,5 18 10 WNW 1013,7 20 0,0
29.03.2020 15:00:00 22,4 3,5 15 8 NW 1014,2 20 0,0
29.03.2020 14:00:00 21,8 3,4 16 9 WNW 1015,0 12 -
29.03.2020 13:00:00 21,5 5,0 11 6 N 1015,6 20 0,0
29.03.2020 12:00:00 20,0 4,5 8 4 N 1016,2 20 0,0
29.03.2020 11:00:00 17,8 2,9 18 10 WNW 1016,6 12 -
29.03.2020 10:00:00 15,2 1,7 21 11 WNW 1016,7 20 0,0
29.03.2020 09:00:00 13,0 2,5 16 9 N 1016,7 20 0,0
29.03.2020 08:00:00 12,9 3,5 11 6 N 1016,4 10 -
29.03.2020 07:00:00 11,8 5,2 9 5 NNW 1016,1 20 0,0
29.03.2020 06:00:00 9,7 7,1 8 4 NNW 1016,3 20 0,0
29.03.2020 05:00:00 9,7 7,8 4 2 WSW 1016,6 20 -
29.03.2020 04:00:00 10,0 7,6 2 1 ESE 1017,1 19 0,0
29.03.2020 03:00:00 10,2 7,3 4 2 N 1017,7 20 0,0
29.03.2020 02:00:00 10,3 7,5 5 3 NNW 1018,3 17 -
29.03.2020 01:00:00 10,6 7,5 2 1 W 1018,5 16 0,0
29.03.2020 00:00:00 - - - - - - - -

tt = temperature
td = dewpoint
ff = wind speed
dd = wind direction
ppp = reduced air pressure
vv = visibility
rr = precipitation

Next stations